Wind_Speed
25 25 24 22 23 25 25 24 24 24 23 22 21 21 20 20 19 19 19 18 18 17 15 14 13 12 10 9 9 8 7 7 6 6 6 7 7 8 7 5 4 3 3 3 3 4 4 3 1 0 1 2 3 4 4 4 3 3 3 3 3 4 4 5 6 6 6 6 5 5 4 4 3 3 4 4 4 4 5 5 6 8 8 8 8
26 25 25 23 24 26 25 23 22 21 21 20 19 20 20 18 18 18 17 16 16 15 14 12 11 10 9 8 7 7 7 7 7 7 7 8 8 7 6 5 4 3 3 3 4 4 3 3 3 3 4 4 4 4 5 5 5 4 4 3 4 4 5 5 6 7 7 7 7 6 5 4 4 5 5 5 4 4 6 6 7 8 8 8 8
26 26 25 24 24 25 24 22 20 18 18 18 16 16 16 15 15 15 14 14 13 13 12 11 10 9 9 8 7 7 7 7 8 8 8 8 7 6 5 4 4 4 4 4 5 4 6 7 7 7 6 6 6 6 5 5 5 5 4 3 4 5 5 5 5 6 7 7 8 9 7 6 6 7 8 8 7 7 7 7 8 9 8 8 9
26 27 26 25 24 23 23 21 20 18 17 16 15 14 14 14 13 13 13 12 12 11 11 10 10 10 9 9 8 8 8 9 9 9 8 8 7 6 5 4 4 4 5 5 5 6 8 9 10 9 9 8 8 8 7 7 7 6 5 5 5 5 5 5 5 6 6 7 10 9 8 7 6 5 5 6 7 8 9 9 8 9 9 9 10
26 27 26 26 25 23 22 21 19 18 16 15 14 14 14 14 13 13 13 12 12 11 11 11 10 10 10 10 10 10 10 9 9 9 8 8 7 6 5 5 5 5 5 6 7 8 10 10 10 10 11 11 11 10 9 9 8 7 6 6 6 5 5 5 6 6 7 8 9 8 8 7 5 3 2 2 4 5 7 10 10 9 9 10 11
26 26 26 26 25 23 22 20 18 17 16 15 14 14 15 15 15 14 13 13 12 11 11 11 10 10 10 10 10 11 10 9 9 8 8 8 7 7 6 6 6 6 7 7 8 9 10 10 11 11 11 12 12 11 10 10 8 8 7 7 7 6 7 7 7 7 7 7 7 6 6 6 6 4 3 3 3 2 3 8 10 11 10 11 11
25 25 24 24 23 22 20 19 17 16 16 15 15 15 15 16 16 15 14 13 13 12 11 10 10 10 10 10 10 10 10 9 9 8 8 8 8 7 7 7 7 7 8 8 10 10 10 10 11 12 12 12 12 12 11 10 10 9 8 7 8 8 8 9 9 9 8 7 5 5 5 6 7 5 4 3 3 2 2 5 10 13 12 12 11
24 23 23 21 21 20 18 17 15 15 15 15 15 14 15 16 16 15 15 13 13 12 11 10 9 9 10 10 10 10 10 10 9 8 9 9 8 8 7 8 7 8 9 9 10 10 10 11 11 12 12 12 12 12 12 11 9 9 8 8 8 8 9 9 9 9 9 8 7 6 6 7 8 7 5 5 4 3 3 5 11 13 12 12 11
23 22 21 20 19 18 17 16 14 15 15 15 14 14 14 16 15 14 14 13 12 11 9 9 9 9 9 10 10 10 10 10 10 10 10 10 9 9 9 9 8 8 9 10 10 10 10 11 11 11 11 11 12 13 12 11 10 9 9 8 8 8 9 9 9 9 9 9 9 8 8 9 9 8 6 6 5 5 6 6 11 13 12 12 12
23 22 20 20 19 17 16 15 14 15 16 15 14 13 14 15 14 14 13 12 11 10 9 9 9 10 10 11 11 11 11 11 11 11 11 10 10 9 9 9 8 9 10 10 10 10 10 10 10 11 11 12 13 13 12 12 12 11 11 10 9 8 9 8 8 9 8 9 10 10 9 9 9 8 6 6 6 7 7 8 11 12 11 12 12
23 21 19 19 17 16 15 14 14 15 16 15 14 13 14 14 14 15 13 12 11 11 10 10 11 10 10 11 12 12 12 11 11 11 11 10 10 10 10 10 9 10 10 11 11 11 10 10 10 10 11 12 13 12 12 13 13 13 13 12 11 9 9 9 8 9 8 9 11 11 10 9 9 10 7 6 8 8 8 9 10 11 11 12 12
22 20 19 18 16 15 14 14 15 16 16 15 14 13 14 14 14 15 14 13 12 11 11 11 11 11 11 11 12 12 12 11 11 11 10 10 10 10 10 10 10 10 11 11 11 10 10 10 10 10 11 11 12 13 13 13 14 14 14 13 13 12 11 9 8 9 7 10 13 11 10 9 10 9 8 8 8 8 8 9 9 10 10 11 12
21 19 18 17 16 14 13 14 16 18 17 15 13 12 13 14 14 14 14 13 12 11 11 11 10 10 11 12 12 12 11 11 10 10 9 9 10 10 10 10 10 10 11 11 11 11 11 10 9 10 11 11 11 13 13 13 14 14 13 13 13 13 13 12 10 9 6 9 13 12 11 11 10 8 7 8 8 9 9 9 9 9 10 11 12
21 19 18 17 15 13 12 13 16 19 18 15 13 12 12 13 14 14 13 13 11 11 11 11 10 10 11 11 11 11 11 10 9 9 8 9 10 10 10 10 10 10 11 11 11 11 10 9 8 9 10 11 11 12 12 13 13 13 13 13 13 13 14 13 11 10 7 9 13 12 11 11 10 8 7 7 8 9 9 9 9 10 11 11 11
21 19 18 16 14 13 12 13 16 19 18 15 14 12 11 12 13 13 13 12 11 11 11 11 10 11 10 10 11 10 10 9 8 8 8 9 9 10 10 11 11 11 11 11 11 10 10 8 8 10 11 11 11 12 12 12 12 11 12 12 12 12 12 12 11 10 8 10 13 12 10 10 9 8 8 7 8 10 10 9 10 11 11 11 10
20 19 18 16 14 12 12 14 16 18 17 15 13 12 11 12 12 13 13 12 12 11 11 11 10 10 10 10 10 10 9 9 8 9 9 9 9 10 10 11 11 11 11 11 11 10 9 8 8 10 11 12 12 12 12 11 11 10 11 11 11 11 11 11 10 10 9 9 11 11 10 10 10 8 9 9 10 10 10 10 11 11 11 11 10
20 18 17 16 13 12 13 14 17 17 16 14 13 12 11 12 12 12 12 12 12 12 11 11 10 10 9 10 10 10 10 9 10 10 10 10 10 10 10 11 11 10 10 10 11 11 10 9 9 10 11 12 12 12 12 11 11 10 10 10 10 10 10 10 9 8 8 7 8 9 9 9 9 8 9 9 9 10 9 10 10 11 11 10 9
20 18 16 15 13 11 12 15 17 16 15 14 13 12 12 11 11 11 11 11 11 11 11 10 10 9 9 10 10 11 11 11 11 11 11 11 11 11 11 10 10 10 9 9 10 10 10 10 10 10 11 12 12 12 12 11 10 10 10 10 10 9 9 9 8 8 7 6 6 7 7 7 7 7 7 8 8 8 8 9 9 9 9 9 8
20 17 15 14 12 11 12 15 16 16 15 14 13 13 12 11 11 10 11 11 11 10 10 10 10 10 10 10 11 11 12 12 12 12 12 12 11 11 10 10 10 10 9 9 9 9 10 10 9 9 11 12 12 11 11 11 10 9 10 10 10 9 10 9 7 7 7 6 5 5 5 5 5 5 6 6 6 7 7 7 8 8 8 8 7
20 17 15 14 12 12 14 15 16 15 15 15 14 14 12 11 10 10 10 11 10 10 10 11 11 10 10 10 11 12 12 13 13 13 13 13 12 10 10 10 10 10 10 9 9 9 8 9 9 9 11 12 12 11 10 10 10 10 10 10 10 10 10 8 7 8 8 6 5 5 4 4 4 4 4 4 4 6 5 5 6 6 6 6 5
20 18 15 14 12 12 15 16 16 16 16 16 15 14 12 11 10 10 10 11 11 11 11 12 11 10 11 12 12 13 13 14 14 14 14 14 13 12 11 10 10 10 10 10 9 9 9 9 10 9 10 11 10 10 9 10 10 10 10 10 10 10 10 9 8 8 8 7 7 6 5 4 4 4 3 3 3 4 4 4 4 5 5 4 4
20 18 16 14 13 13 15 16 16 16 16 16 15 14 12 11 11 11 11 11 12 12 12 12 10 12 14 15 14 15 15 14 15 14 15 15 14 14 13 12 12 10 10 10 10 10 10 10 10 9 9 9 9 9 9 9 10 10 10 10 10 10 9 8 8 8 8 8 9 9 7 6 5 5 5 4 3 3 3 3 3 3 3 3 3
20 19 17 15 14 14 16 16 16 17 17 17 16 14 12 11 11 12 12 13 13 13 13 13 14 15 17 16 16 16 15 14 14 14 15 15 14 14 14 14 14 13 11 11 10 10 10 10 10 9 9 9 8 8 8 8 8 9 10 11 11 10 9 8 8 8 8 9 10 10 10 9 8 8 7 7 6 5 4 4 4 3 3 3 3
20 18 17 15 14 16 17 17 17 17 17 17 16 14 12 11 11 12 13 14 13 13 14 16 18 18 17 16 16 16 15 14 14 14 14 14 14 13 13 14 14 14 13 13 12 11 11 11 11 10 9 9 8 7 7 7 7 8 9 10 10 10 9 8 8 7 8 9 10 10 11 11 11 11 10 10 9 8 7 7 6 6 5 4 4
20 18 17 15 15 17 17 18 18 18 18 17 16 14 12 11 12 13 14 14 13 13 15 18 18 17 16 15 15 15 14 14 14 13 13 13 14 13 12 12 13 13 13 13 12 12 11 11 11 10 9 8 8 7 6 6 6 6 7 8 8 8 8 8 8 7 7 8 9 9 10 10 11 12 12 12 11 10 10 9 9 8 8 7 5
20 18 17 16 16 18 18 18 19 18 18 17 16 14 12 11 12 14 14 14 14 15 17 18 17 15 14 14 14 14 14 14 14 13 13 13 13 13 12 11 11 11 11 11 11 11 11 10 10 9 9 8 8 7 6 6 5 5 5 5 6 7 7 7 7 7 7 7 8 8 9 9 10 11 11 11 10 10 10 9 9 9 9 8 7
20 18 18 16 16 19 19 18 19 18 18 17 16 14 12 12 13 15 15 15 15 17 18 17 15 14 13 13 13 13 13 13 13 13 13 12 12 12 11 11 10 10 10 9 9 9 10 10 10 10 9 9 8 7 7 6 6 5 4 3 4 5 5 5 6 6 6 6 7 7 7 8 9 9 10 10 9 9 9 8 8 8 8 8 7
20 18 18 16 16 18 19 19 19 18 18 17 16 14 12 13 14 15 16 17 18 19 18 16 15 14 13 13 12 13 13 12 12 13 13 12 12 11 10 10 10 9 9 8 8 8 9 9 10 10 10 9 8 8 8 7 6 5 4 3 3 3 3 3 4 5 6 6 6 6 6 7 7 8 8 9 8 8 8 7 7 7 7 7 7
20 19 18 17 16 18 19 19 19 18 18 17 16 14 13 14 15 16 17 19 20 19 18 16 15 14 14 13 13 13 13 12 12 13 13 12 12 10 9 9 9 9 9 8 8 7 8 8 9 10 10 9 8 8 8 8 7 5 4 4 3 3 3 2 2 3 4 5 5 5 5 6 7 7 8 8 8 8 8 7 7 7 7 7 7
21 19 19 18 17 18 19 19 19 18 18 17 16 15 14 15 15 16 18 20 20 19 18 16 15 14 14 13 13 13 13 12 12 12 12 12 11 10 9 9 8 8 9 9 8 8 8 8 8 9 9 9 8 8 8 8 6 4 3 4 4 3 2 3 2 1 3 4 5 5 5 5 5 6 7 7 7 7 7 7 7 6 6 6 6
21 19 19 18 17 19 20 19 19 19 18 17 16 16 15 15 15 16 18 19 19 18 16 15 14 14 14 13 13 12 12 12 12 12 11 11 11 10 9 9 8 8 8 8 8 7 7 7 8 8 9 9 9 8 8 8 7 5 4 4 4 3 2 3 3 1 2 4 4 4 4 4 4 5 5 6 6 6 6 6 6 5 5 4 4
21 19 19 19 18 19 20 20 19 19 19 17 17 17 16 16 16 16 18 18 18 16 15 14 13 13 13 13 12 12 12 12 12 11 11 11 10 10 9 8 8 8 7 7 7 7 6 6 7 7 8 9 8 8 8 8 7 5 4 4 4 3 3 3 3 2 2 2 4 3 3 3 3 3 3 3 3 4 4 4 4 4 3 2 2
21 20 19 20 19 19 21 21 19 19 19 18 18 18 17 17 16 16 17 17 17 15 14 13 11 11 12 12 12 12 12 12 11 11 10 10 9 9 9 9 9 8 8 7 7 6 6 6 6 6 6 8 9 8 7 7 6 5 4 3 3 3 4 4 3 2 2 2 2 2 1 1 2 1 1 0 1 2 2 1 2 2 1 0 2
22 21 20 21 20 19 21 22 20 20 19 19 18 18 18 18 17 16 17 17 16 14 13 12 11 10 10 11 11 11 12 11 10 10 9 9 9 9 9 9 9 9 9 8 7 7 7 6 6 6 5 7 9 8 7 6 5 4 3 3 3 3 4 4 4 3 2 2 1 1 1 0 1 0 0 1 2 1 0 0 0 1 1 2 3
23 22 21 21 21 20 21 22 21 20 20 19 19 19 19 19 18 17 17 17 15 14 13 12 11 10 10 11 11 11 11 11 10 9 8 9 8 8 9 9 8 8 9 8 8 8 7 7 6 6 5 6 9 9 7 5 5 4 2 2 2 3 3 4 5 4 2 2 1 2 2 1 1 1 0 0 1 2 2 1 2 3 2 3 4
24 22 22 22 21 20 20 21 21 21 20 20 19 19 19 19 19 18 18 17 16 14 13 12 11 10 10 11 11 11 10 10 9 8 8 8 8 8 8 8 7 7 8 8 8 8 7 7 6 6 5 5 7 9 7 5 5 4 3 2 2 3 3 4 5 3 2 1 1 1 2 2 2 2 2 2 1 2 3 2 3 4 4 4 5
24 24 23 22 22 21 20 21 22 21 21 21 20 20 19 19 19 19 19 18 17 15 13 12 11 11 11 10 10 10 10 9 9 8 8 8 7 7 7 7 7 7 7 7 7 7 7 6 6 6 5 5 5 7 7 5 4 4 3 1 2 3 3 4 4 3 2 0 1 1 1 2 2 2 2 1 1 1 2 2 2 2 3 3 4
26 25 24 23 22 22 21 22 23 23 22 21 21 20 20 20 20 20 19 18 17 15 13 12 11 11 10 10 10 10 9 9 8 8 8 7 6 6 7 6 6 6 6 7 6 6 6 6 6 6 5 4 3 4 5 5 3 3 2 1 1 3 3 3 4 3 2 2 2 2 3 2 2 2 2 1 2 1 0 1 1 2 2 2 4
27 26 26 25 24 24 23 23 24 24 23 22 21 21 21 21 20 20 20 19 17 15 14 13 12 11 10 10 10 10 9 8 8 7 7 7 6 6 6 5 5 5 6 6 6 6 6 5 5 5 4 4 3 3 4 5 3 1 1 1 2 3 3 3 4 4 3 4 4 4 5 5 4 3 2 2 2 2 2 1 1 2 2 2 3
28 28 28 28 26 26 25 25 25 25 25 24 23 22 22 22 21 21 19 18 17 16 14 13 12 11 10 10 10 9 9 8 7 7 6 6 5 5 5 4 4 4 5 5 5 5 6 5 4 4 4 4 4 3 4 5 2 1 0 1 1 0 2 4 5 5 4 4 5 5 5 6 5 3 1 2 2 2 2 1 2 2 3 4 4
29 29 29 29 28 27 27 26 26 26 26 25 24 23 22 22 22 20 19 18 17 16 15 14 13 11 10 10 10 9 9 7 6 5 5 5 5 5 4 4 4 4 4 4 5 5 5 5 4 4 4 4 4 4 4 4 3 2 1 0 0 1 2 4 6 5 5 4 4 4 5 5 6 5 3 0 1 1 2 3 3 3 5 6 6
30 30 30 29 29 28 28 27 27 27 27 26 24 23 22 21 20 20 19 18 17 16 15 15 14 12 11 10 9 9 8 7 6 5 4 4 4 4 4 4 4 3 3 3 3 4 4 5 5 4 4 4 4 4 4 5 3 2 1 0 0 1 2 4 5 5 5 4 4 4 4 4 5 5 4 3 3 3 4 5 5 6 7 7 7
30 29 30 30 30 30 29 29 29 28 28 27 25 24 22 21 20 20 19 18 18 17 16 15 15 13 12 11 10 9 8 7 6 4 4 4 4 3 4 4 4 3 3 3 3 4 4 5 5 5 5 6 5 5 4 4 4 2 1 1 1 1 3 4 5 5 5 4 4 5 5 5 5 4 4 4 4 5 5 6 6 7 7 7 7
30 30 30 31 31 31 30 30 30 29 29 29 27 25 24 23 22 21 21 20 20 18 17 16 15 14 13 12 10 9 8 7 6 5 4 4 4 4 4 4 4 4 4 3 3 3 4 5 5 5 6 6 6 6 4 3 3 2 2 1 0 2 4 3 5 6 5 5 5 6 6 5 5 4 4 5 5 5 5 5 6 6 7 6 6
31 31 31 31 31 30 30 30 30 30 30 29 28 27 26 25 24 23 23 23 22 20 18 16 15 14 13 12 11 10 9 8 6 5 4 4 5 5 4 4 4 4 4 3 2 2 3 4 5 5 6 6 6 5 4 3 3 2 2 2 2 4 4 4 6 5 6 5 5 6 6 4 4 4 4 5 5 5 5 5 5 6 6 6 6
32 31 31 31 31 30 30 30 30 30 30 29 29 29 28 27 26 25 24 23 22 21 18 15 14 13 13 13 12 11 10 9 7 6 5 4 5 6 5 5 4 4 3 2 2 3 3 3 4 5 5 6 6 5 4 3 3 3 2 2 3 4 5 7 7 5 5 4 4 5 5 3 3 3 3 4 4 4 4 4 5 5 6 6 6
32 31 32 31 31 30 30 30 30 30 30 30 30 30 30 29 27 25 24 22 21 19 18 16 15 15 15 14 14 13 12 10 8 7 6 5 6 6 6 6 5 4 3 2 3 3 2 2 3 4 5 5 5 4 4 4 4 4 3 3 3 4 5 7 7 6 5 4 4 3 3 3 3 3 3 3 3 3 3 3 4 5 6 6 7
32 32 32 31 30 30 30 30 30 30 30 30 31 31 30 30 28 27 25 23 21 20 20 19 18 17 17 16 16 15 14 11 9 8 7 6 6 7 7 7 7 6 4 3 2 2 1 1 2 3 3 4 5 4 4 4 4 3 2 3 3 3 4 5 5 6 5 4 3 3 2 2 3 3 3 3 3 3 3 3 4 5 5 6 6
32 32 32 32 31 31 31 31 30 30 30 30 31 31 30 30 29 28 27 24 23 22 22 22 20 19 19 18 18 17 15 13 11 9 8 7 7 7 8 8 8 7 5 4 2 2 1 1 1 1 2 3 4 4 4 4 4 3 2 2 2 2 2 2 3 4 3 3 2 2 3 3 3 3 3 4 4 4 4 4 4 4 5 5 5
33 32 32 33 32 31 31 31 31 31 31 30 30 30 31 30 30 29 27 26 25 25 24 24 23 21 21 20 19 18 16 15 13 11 9 8 8 8 8 8 8 7 6 4 3 2 1 0 0 0 1 3 3 4 4 3 3 3 3 1 2 2 2 1 1 2 2 3 2 2 2 1 1 3 4 5 5 4 5 4 4 4 4 5 5
34 34 34 34 33 32 31 31 31 32 32 31 30 30 30 30 30 29 28 27 27 26 26 25 24 23 22 21 20 19 18 16 14 12 10 9 9 9 8 8 8 8 7 6 5 4 2 1 1 1 1 1 2 3 3 3 3 3 3 2 1 2 1 0 0 1 1 2 2 3 3 3 3 3 3 4 4 4 4 4 4 5 5 6 6
Wind_Direction
133 134 130 130 130 128 126 127 127 128 130 132 134 136 137 138 136 132 133 132 132 134 136 141 145 147 146 146 146 146 147 146 147 149 151 148 142 134 128 121 112 104 93 73 40 11 358 349 341 164 143 156 163 169 164 155 156 168 186 190 194 197 202 210 211 210 207 203 196 191 190 185 174 150 137 131 129 118 93 75 74 73 69 71 65
134 136 133 132 133 130 127 128 130 130 129 132 137 138 135 134 134 130 132 132 135 139 142 146 148 152 153 155 155 156 156 155 156 155 151 145 138 134 132 128 124 114 98 68 36 31 46 73 88 111 121 127 142 154 160 156 147 154 167 173 190 197 199 206 207 206 207 207 204 197 190 185 177 163 152 143 136 118 95 81 83 81 73 73 65
136 137 135 135 135 133 131 130 132 133 131 133 135 132 128 128 130 130 134 137 140 143 147 151 155 161 163 163 162 159 158 157 154 149 145 140 140 140 139 136 126 107 86 56 47 68 89 95 96 104 114 117 127 140 152 151 143 145 154 167 191 198 199 202 199 198 200 203 204 194 183 178 183 173 158 147 135 119 103 89 87 88 83 78 67
138 138 136 135 136 135 133 132 135 137 135 136 135 133 132 134 136 137 140 141 143 147 153 159 162 164 162 161 159 156 154 149 143 141 142 142 145 145 138 126 112 98 75 59 76 94 95 95 95 97 103 109 117 124 130 134 139 144 155 166 175 186 192 196 196 196 190 200 207 191 181 183 186 174 157 146 126 115 109 101 93 90 84 74 62
139 138 136 135 136 135 133 134 137 139 139 137 138 139 139 140 139 137 137 137 141 148 154 157 157 156 155 155 152 152 149 143 140 140 143 144 144 138 127 115 105 92 73 78 97 98 95 95 96 98 100 103 107 109 113 123 137 146 154 160 163 171 176 186 187 189 184 197 210 183 183 194 183 174 170 155 118 119 114 107 100 89 78 67 58
140 138 137 136 136 135 135 135 138 139 137 136 138 140 139 136 132 129 131 134 141 148 151 150 150 149 149 151 150 151 149 146 145 144 143 140 136 130 121 111 102 85 75 89 94 91 97 101 102 105 106 106 106 107 112 119 128 135 144 150 154 157 158 169 171 181 183 193 207 163 166 182 168 168 163 155 135 150 108 98 97 85 73 65 59
141 139 139 138 136 136 136 134 136 135 132 133 135 137 135 128 125 127 131 135 142 147 148 146 146 145 145 147 149 151 151 149 145 141 139 131 125 124 118 106 96 79 78 95 96 95 102 105 107 108 108 109 109 109 109 111 116 123 132 142 144 148 151 159 163 172 173 174 178 140 148 164 156 155 150 149 151 150 71 79 86 77 68 64 62
141 140 140 138 136 134 133 132 132 132 130 131 133 133 129 123 123 127 130 135 141 143 142 138 135 135 136 137 142 146 145 142 137 133 129 124 120 120 113 103 94 80 85 102 104 104 107 107 108 106 107 108 109 107 105 105 109 116 124 133 137 142 147 153 156 158 158 156 149 140 158 162 148 144 144 146 153 136 92 78 74 68 65 65 68
143 142 142 140 137 134 133 132 131 131 130 130 131 130 124 120 120 123 126 131 134 132 129 130 128 127 126 126 129 133 134 132 128 125 121 118 118 118 111 105 97 83 90 107 109 110 112 112 113 109 107 107 109 107 103 103 104 108 115 122 129 135 140 143 144 143 151 149 136 134 143 143 137 135 136 134 132 109 100 91 72 66 65 69 74
144 144 144 142 138 134 134 132 132 132 133 134 132 129 124 121 122 125 128 130 128 126 124 124 123 120 117 117 118 121 124 124 120 118 116 115 116 115 110 107 100 88 93 108 113 115 116 117 118 112 107 106 109 106 101 100 99 99 101 104 110 120 127 129 132 136 142 136 125 122 121 126 125 117 116 117 117 106 105 96 74 67 67 76 80
145 146 146 143 138 134 133 132 132 134 137 136 133 131 126 125 127 128 130 131 131 128 123 120 119 117 114 114 115 116 116 116 115 113 114 114 113 111 110 106 98 91 95 108 118 121 120 120 118 112 108 107 108 105 100 99 98 96 94 95 99 108 120 124 124 125 127 121 115 113 112 117 113 107 108 110 114 114 114 95 77 70 73 84 87
146 147 146 143 139 134 132 134 134 137 141 136 132 132 127 126 127 128 132 133 133 130 125 122 120 117 115 114 114 113 112 112 113 112 113 112 113 115 113 105 99 96 97 108 120 123 120 118 114 112 111 110 111 108 103 100 99 97 94 94 96 101 113 119 117 116 123 120 113 114 116 113 106 108 115 110 109 118 115 93 80 78 84 93 93
147 147 145 143 140 136 134 135 138 141 141 136 132 130 127 128 129 131 133 133 133 132 129 125 120 116 115 113 112 113 112 111 112 113 113 114 117 118 114 107 104 102 101 108 119 121 117 116 115 119 120 118 119 113 107 102 98 97 96 93 93 96 101 104 106 109 118 112 107 112 116 112 107 109 113 112 116 120 105 87 85 89 95 100 97
149 147 146 144 142 139 137 136 138 141 140 137 134 132 132 131 131 132 133 132 132 131 129 127 122 118 115 113 113 115 115 114 114 114 116 119 119 119 118 114 110 105 106 110 118 121 117 115 116 123 126 122 120 113 109 105 99 98 96 92 92 93 94 95 95 97 98 95 98 103 107 106 104 105 107 114 117 104 89 86 90 97 103 104 100
150 148 147 147 147 142 138 139 139 141 141 141 139 139 139 134 131 131 132 131 131 129 127 127 124 121 119 117 116 117 117 116 115 113 117 119 118 121 124 121 116 112 111 115 121 123 119 117 115 119 122 119 117 112 108 105 100 99 98 94 91 90 90 90 87 84 82 85 93 97 101 104 104 106 104 100 94 89 88 91 93 100 106 104 101
153 150 149 150 149 144 139 140 142 143 144 144 143 144 142 136 131 130 131 131 132 129 126 126 123 121 120 118 117 115 114 113 111 111 114 116 116 121 127 125 123 120 118 122 126 127 124 120 117 116 117 115 112 109 107 105 104 103 100 95 90 88 88 86 84 80 74 76 89 93 93 99 104 102 97 92 88 91 95 95 97 104 107 107 105
156 153 151 152 150 146 142 142 143 144 145 146 145 145 142 136 132 130 131 131 132 129 126 124 120 119 118 117 114 111 109 106 107 110 111 111 113 118 125 128 127 126 124 125 129 132 128 120 121 122 122 120 115 113 115 113 109 103 96 94 91 88 88 87 85 82 76 71 80 92 93 94 100 98 96 98 95 95 100 103 106 108 110 109 102
158 155 153 153 151 146 145 146 145 145 145 146 145 144 139 134 132 132 131 130 129 127 124 120 117 114 112 112 109 105 103 102 102 106 109 108 109 115 122 127 127 127 126 124 126 129 126 120 123 126 127 123 116 113 112 108 101 97 95 94 93 91 88 86 84 81 81 81 81 93 100 101 102 102 103 104 101 99 101 104 109 113 111 105 97
160 157 155 153 150 147 149 149 145 146 146 145 144 141 137 135 135 132 130 128 126 123 120 116 111 109 110 110 106 103 101 101 104 105 105 104 106 112 118 123 124 125 126 123 120 119 119 117 116 115 111 105 101 101 100 98 96 95 94 96 96 92 86 82 79 78 76 80 88 98 106 108 104 105 109 110 109 106 103 103 109 115 110 103 101
162 159 157 154 152 149 150 150 146 146 144 143 143 139 136 134 131 128 126 124 124 122 119 115 111 112 112 109 106 105 103 104 106 104 101 99 100 104 113 121 122 124 125 121 116 110 108 104 99 93 91 90 93 95 96 97 96 93 95 100 101 96 92 87 79 75 73 73 82 95 102 103 97 99 108 116 115 111 111 111 111 112 109 108 109
163 161 159 154 152 151 151 151 149 147 144 144 143 138 135 131 126 125 125 125 126 127 122 115 114 116 112 109 110 108 107 107 106 104 101 97 93 94 102 115 121 120 117 112 108 104 100 94 89 86 87 91 95 95 96 95 94 97 101 104 102 100 100 97 87 81 79 79 82 89 95 95 89 90 101 118 124 118 121 123 117 115 117 123 122
165 162 160 155 154 153 152 152 150 147 145 145 142 137 131 125 123 124 126 128 130 129 122 115 114 117 115 114 112 109 108 108 107 105 102 98 94 91 92 101 112 116 114 110 107 105 99 93 88 85 87 92 95 95 95 95 98 102 104 104 100 100 101 97 93 90 88 88 89 88 90 92 92 91 92 100 109 115 119 120 116 117 130 143 140
167 164 160 156 156 156 155 154 152 150 148 146 141 136 129 122 122 125 129 131 132 128 118 114 117 118 117 115 111 109 109 108 107 106 104 102 99 95 93 95 101 106 109 109 108 104 99 95 90 85 86 90 92 94 94 96 102 103 103 101 97 97 98 97 94 93 94 97 97 94 93 92 91 92 91 94 96 100 102 97 96 101 114 127 137
167 165 160 157 159 158 158 155 153 153 151 148 144 136 127 121 123 129 132 133 132 124 117 117 119 118 116 113 111 110 109 108 106 106 107 107 104 101 97 96 97 99 101 103 102 100 98 96 92 87 87 88 87 89 92 93 95 96 98 98 99 100 101 101 98 94 96 100 101 101 100 96 93 93 93 95 96 97 96 92 89 89 94 102 123
168 166 162 159 162 160 159 157 154 155 153 149 146 138 127 124 127 133 135 135 132 124 121 121 120 118 114 112 112 110 108 108 106 106 105 105 106 104 101 99 99 99 100 100 99 97 94 92 91 90 89 87 83 81 81 79 78 81 89 96 101 104 106 107 104 98 96 99 101 102 101 101 98 96 96 96 96 95 92 89 87 84 84 90 106
170 168 164 161 165 162 160 160 157 156 155 152 148 139 129 127 132 137 138 136 133 127 126 125 120 116 114 111 110 108 107 107 106 106 105 103 104 104 105 104 103 101 99 98 98 97 94 91 93 96 94 91 87 82 77 71 67 67 76 95 104 106 110 111 109 105 101 101 101 102 102 101 100 99 100 99 97 96 93 90 88 85 81 81 91
173 169 167 165 167 164 162 161 159 158 156 154 150 141 131 132 137 139 140 139 134 131 131 127 120 115 113 111 110 109 108 108 107 107 106 104 102 102 105 108 108 105 103 102 100 100 99 97 95 96 98 96 91 85 78 70 64 62 62 81 103 106 110 115 116 113 110 108 106 104 101 98 96 97 99 99 98 96 94 92 87 84 81 79 82
177 171 170 169 169 167 165 163 161 160 158 156 152 144 136 138 141 142 143 142 137 136 135 128 121 118 116 115 113 113 113 112 111 111 110 108 106 106 107 109 110 109 109 108 104 102 99 98 94 93 96 94 90 82 74 66 61 63 64 68 85 96 103 115 126 125 119 115 112 108 105 101 98 99 100 99 98 96 93 90 86 82 80 78 77
179 176 175 172 170 170 168 165 162 161 159 158 153 145 141 143 144 147 147 144 142 142 138 131 127 125 122 120 117 116 116 115 115 116 115 114 112 113 113 112 112 111 110 108 105 103 98 96 94 93 94 92 88 81 73 64 57 57 72 78 77 78 82 91 118 145 139 129 123 119 116 113 110 109 106 102 100 100 97 91 86 80 78 77 74
182 180 178 174 171 172 171 167 164 162 161 159 155 148 145 147 146 149 149 146 146 144 138 133 131 129 126 123 120 119 118 118 118 118 116 114 114 114 115 114 111 109 106 102 99 98 96 93 93 93 93 92 88 82 75 67 58 52 77 95 90 81 73 78 87 144 160 150 140 134 128 124 125 121 115 110 104 102 101 98 94 85 79 78 76
184 183 180 177 174 173 174 171 166 164 162 160 156 151 150 150 148 149 150 150 149 144 139 136 134 132 129 126 124 121 120 119 119 118 115 113 112 111 111 111 107 103 99 97 93 92 93 89 88 91 94 95 90 85 78 69 62 55 70 94 104 104 91 80 82 116 172 170 159 148 135 130 129 124 121 118 111 106 102 104 106 99 93 90 85
186 185 183 180 177 176 175 174 169 165 162 160 157 155 154 153 150 151 153 154 150 146 142 140 138 136 132 128 126 124 121 120 119 117 115 110 106 104 104 103 99 94 91 91 91 92 94 89 85 88 95 97 91 87 80 67 62 66 74 90 109 113 106 95 88 114 162 179 177 160 140 130 117 116 118 113 109 110 109 111 112 112 119 107 75
187 187 186 183 181 180 177 175 171 167 163 161 160 159 157 155 153 154 156 157 155 151 148 145 142 138 134 130 127 126 124 121 119 116 113 109 103 99 96 93 89 87 87 85 86 90 93 91 86 85 95 103 100 92 83 69 60 68 79 94 109 111 111 112 106 126 144 166 191 178 173 135 103 112 119 71 49 99 113 117 105 117 163 11 20
188 189 189 186 186 183 179 176 173 169 166 163 162 161 160 158 155 156 159 161 161 156 151 148 145 142 137 133 130 128 125 121 117 114 110 106 100 95 91 87 84 83 84 84 83 85 91 94 93 90 91 100 102 98 88 80 67 65 89 103 102 106 110 119 126 138 149 168 206 212 232 226 122 168 34 320 300 315 176 242 286 222 269 318 337
191 191 191 189 189 187 182 178 176 171 168 166 163 163 164 160 158 160 162 165 165 159 155 153 149 148 143 136 134 131 127 122 117 112 106 100 95 91 87 84 82 83 86 87 89 92 96 98 97 98 95 91 97 100 94 87 75 61 85 108 106 112 115 125 130 132 147 177 214 227 236 230 192 195 200 236 304 302 267 264 282 282 303 313 324
193 192 193 193 191 189 185 181 179 175 171 167 165 166 167 164 162 163 166 167 165 161 159 157 153 151 147 140 138 134 130 125 120 114 106 99 94 89 86 83 81 84 88 91 93 96 97 94 89 87 88 85 90 99 99 93 80 65 65 106 141 136 129 130 126 128 152 174 225 239 237 234 215 204 211 216 233 292 285 277 278 290 309 315 324
193 193 194 196 194 191 187 184 183 179 175 171 168 168 169 168 167 167 169 169 166 164 163 160 156 153 149 145 140 137 134 130 124 120 113 105 99 94 90 86 84 86 88 88 90 92 91 91 93 87 79 75 77 93 102 101 83 68 57 77 171 160 144 145 138 135 146 151 297 290 274 259 242 219 214 229 216 245 323 315 291 291 309 322 332
194 194 195 196 197 194 190 188 186 183 180 177 173 171 171 172 173 172 172 172 170 169 167 163 159 156 152 148 144 141 138 134 130 125 118 111 107 102 96 91 87 85 84 84 84 86 85 86 92 95 89 79 73 91 106 108 95 86 66 26 210 173 155 159 144 122 87 29 358 333 325 311 282 253 227 214 211 184 53 335 320 317 325 338 342
194 195 195 196 197 196 194 192 190 188 185 182 179 176 174 175 177 177 176 175 174 172 170 167 164 160 157 153 150 147 141 137 134 129 121 115 112 109 102 98 92 86 83 84 88 91 88 83 81 88 97 96 95 107 114 112 103 94 92 324 250 181 154 139 114 85 52 27 11 350 341 333 316 282 235 206 196 183 184 206 344 334 349 14 9
196 196 196 196 197 197 197 194 192 191 189 186 184 181 179 178 180 180 179 178 176 174 172 172 170 167 164 161 158 153 147 142 138 133 127 120 118 117 109 102 93 87 81 77 87 96 92 88 84 89 112 120 116 120 118 111 103 70 76 324 327 128 118 103 92 72 48 32 17 358 351 349 344 339 278 206 188 169 153 111 59 23 32 48 51
197 197 197 198 198 198 198 196 195 194 192 190 188 185 184 182 181 182 182 182 178 177 176 175 176 175 172 171 167 161 155 148 141 138 135 130 129 126 118 107 95 87 75 68 82 93 88 84 81 84 105 126 124 118 112 106 106 106 99 340 78 72 67 89 92 76 57 42 30 17 10 11 8 7 12 101 153 128 105 92 77 63 66 70 72
199 198 198 199 199 199 199 198 198 196 194 194 193 190 187 184 182 182 185 186 182 181 180 179 179 180 181 181 177 169 163 156 149 144 142 146 147 135 126 117 104 89 74 70 82 86 78 73 74 74 80 102 117 113 107 107 103 99 123 216 135 86 84 105 104 88 72 63 58 52 46 43 33 28 41 62 79 78 75 78 77 76 78 77 73
201 200 200 200 200 200 200 198 199 198 196 196 196 193 190 187 185 185 187 190 188 187 185 183 183 184 186 187 186 179 171 166 160 155 154 164 170 151 135 126 112 100 89 83 85 83 75 71 72 71 72 90 108 103 93 102 98 77 105 170 202 137 112 119 117 106 98 89 83 80 78 75 66 58 61 63 68 68 66 71 74 77 79 76 72
202 202 201 202 202 201 201 200 200 199 198 198 197 196 195 192 191 189 191 193 193 192 189 187 187 187 188 190 192 188 183 179 171 167 169 174 180 170 150 137 121 110 105 97 86 76 71 72 73 68 68 77 91 93 83 88 97 94 115 143 176 112 107 133 133 121 120 114 104 99 98 94 83 69 60 58 59 61 65 73 78 81 79 76 73
204 204 203 203 204 203 202 202 201 201 200 199 198 198 198 197 196 194 195 197 195 195 193 191 191 190 189 192 195 196 194 190 184 182 184 183 184 180 167 151 138 123 114 110 98 79 70 70 70 67 68 71 80 92 87 77 83 94 115 122 95 82 101 145 143 127 128 127 118 110 106 100 83 66 57 54 51 57 69 81 86 85 81 77 67
206 206 206 206 206 205 204 203 203 202 203 202 200 200 200 200 200 198 199 200 198 197 195 193 195 194 192 194 198 201 201 199 196 193 194 194 188 185 180 169 159 145 130 119 112 100 81 71 67 65 69 74 81 94 95 82 78 75 76 99 117 118 129 136 129 120 117 113 113 109 97 80 63 59 65 61 53 58 70 82 84 82 78 73 59
208 207 207 208 208 207 205 205 204 203 203 203 203 202 202 202 202 201 202 203 201 199 197 197 198 197 197 197 200 204 205 204 202 198 201 204 196 190 188 186 182 175 164 144 125 117 102 86 68 64 71 75 78 84 89 86 84 77 61 66 90 111 126 130 127 123 111 99 101 99 80 56 47 55 71 77 69 70 76 77 77 78 74 63 51
210 210 210 210 210 209 207 206 206 205 204 204 205 205 204 203 203 203 203 203 201 199 199 200 201 201 200 200 202 204 206 207 205 202 205 208 205 200 196 196 196 194 190 174 142 130 128 102 65 62 75 80 79 74 71 76 82 77 62 69 76 88 117 131 132 129 122 117 114 105 91 63 54 68 80 87 88 93 95 87 84 79 66 56 50
213 213 213 213 212 210 209 208 207 207 207 207 207 207 207 205 205 205 205 203 202 201 200 202 203 203 204 204 204 204 206 208 208 206 206 210 213 209 205 204 203 202 202 195 172 158 165 93 54 47 66 79 84 77 67 70 82 84 74 93 105 102 114 125 133 132 122 118 121 106 89 61 59 83 98 103 105 109 105 95 88 73 54 52 58
217 215 214 214 214 212 211 210 209 209 209 209 208 208 208 208 207 206 205 203 204 204 203 204 204 204 206 206 206 205 206 209 210 208 206 211 217 215 213 212 209 208 210 210 200 195 206 125 74 348 45 71 84 84 77 68 71 83 86 107 140 120 101 107 137 134 114 109 115 109 99 86 99 108 105 109 113 112 103 93 86 72 61 64 71
218 217 216 216 215 214 213 211 211 211 211 211 210 210 210 210 209 209 207 205 205 206 206 207 207 207 208 208 207 206 205 207 209 208 206 210 216 218 219 218 215 212 216 220 216 214 217 203 201 268 357 50 73 81 81 68 62 73 82 91 126 121 116 129 94 98 111 113 117 129 139 140 133 119 103 104 108 101 92 87 83 80 81 82 82
Height
3197 3198 3198 3199 3199 3200 3201 3202 3203 3204 3205 3206 3207 3208 3210 3211 3211 3211 3211 3212 3213 3214 3214 3214 3214 3215 3216 3216 3216 3217 3217 3218 3218 3219 3219 3220 3220 3221 3221 3221 3221 3221 3221 3220 3220 3219 3219 3218 3218 3218 3218 3219 3219 3220 3220 3221 3221 3221 3222 3222 3222 3222 3223 3223 3223 3223 3223 3223 3223 3224 3224 3224 3224 3223 3223 3223 3223 3223 3223 3224 3224 3224 3224 3224 3224
3198 3199 3199 3200 3201 3201 3202 3203 3204 3205 3206 3207 3209 3210 3211 3211 3212 3212 3212 3213 3214 3215 3215 3215 3215 3216 3217 3217 3217 3218 3218 3219 3219 3219 3220 3220 3221 3221 3221 3221 3221 3221 3221 3221 3220 3220 3219 3219 3218 3218 3218 3219 3219 3219 3220 3221 3221 3221 3222 3222 3223 3223 3223 3223 3223 3223 3223 3223 3223 3223 3223 3223 3223 3222 3223 3223 3223 3223 3224 3224 3224 3224 3224 3224 3224
3199 3200 3200 3202 3202 3202 3202 3203 3204 3205 3206 3208 3209 3210 3210 3210 3212 3212 3213 3214 3215 3215 3216 3216 3216 3217 3217 3218 3218 3219 3219 3219 3220 3220 3220 3221 3221 3221 3222 3222 3222 3221 3221 3221 3221 3220 3220 3219 3219 3219 3219 3219 3219 3219 3220 3221 3222 3222 3222 3222 3223 3223 3223 3223 3223 3223 3223 3223 3222 3222 3222 3222 3221 3220 3221 3221 3222 3222 3223 3224 3224 3224 3224 3225 3225
3200 3201 3202 3203 3204 3204 3204 3205 3205 3206 3207 3208 3210 3210 3211 3211 3213 3214 3214 3215 3216 3216 3216 3216 3216 3217 3217 3218 3219 3219 3220 3220 3220 3221 3221 3221 3221 3222 3222 3222 3222 3222 3221 3221 3221 3221 3220 3220 3220 3220 3220 3220 3220 3220 3221 3222 3222 3223 3223 3223 3223 3223 3223 3223 3223 3223 3223 3222 3220 3221 3222 3222 3222 3222 3223 3223 3224 3223 3223 3224 3224 3224 3225 3225 3225
3201 3202 3203 3205 3206 3206 3206 3207 3208 3209 3209 3210 3211 3212 3212 3213 3214 3215 3216 3216 3216 3216 3216 3216 3217 3217 3218 3219 3219 3219 3220 3220 3221 3221 3221 3222 3222 3222 3222 3222 3222 3222 3222 3222 3222 3221 3221 3221 3221 3221 3221 3221 3221 3221 3222 3222 3222 3223 3223 3223 3223 3223 3223 3223 3223 3223 3223 3221 3219 3221 3223 3223 3224 3225 3226 3226 3226 3226 3226 3225 3224 3225 3225 3225 3225
3202 3203 3204 3206 3207 3208 3209 3209 3210 3211 3211 3211 3212 3213 3213 3214 3215 3216 3216 3217 3217 3216 3216 3217 3218 3219 3219 3219 3220 3220 3220 3221 3221 3222 3222 3222 3222 3222 3223 3223 3223 3223 3223 3223 3223 3223 3223 3223 3222 3222 3222 3222 3222 3223 3223 3223 3223 3224 3224 3223 3223 3223 3224 3224 3224 3223 3223 3221 3220 3222 3224 3225 3225 3226 3226 3226 3227 3228 3229 3228 3225 3225 3226 3226 3226
3202 3203 3205 3206 3207 3209 3210 3210 3211 3211 3211 3212 3213 3214 3214 3216 3217 3217 3217 3217 3217 3217 3217 3218 3219 3220 3220 3220 3221 3221 3221 3222 3222 3222 3222 3222 3223 3223 3223 3223 3223 3223 3223 3224 3224 3224 3224 3224 3224 3224 3224 3224 3223 3224 3224 3224 3224 3224 3224 3224 3224 3224 3224 3224 3224 3224 3223 3222 3221 3223 3224 3225 3225 3226 3227 3227 3229 3229 3231 3231 3227 3226 3227 3227 3227
3203 3204 3205 3207 3208 3209 3209 3210 3211 3211 3212 3213 3213 3214 3215 3217 3218 3218 3218 3217 3217 3218 3218 3219 3219 3220 3220 3221 3221 3222 3222 3222 3223 3223 3223 3223 3223 3223 3224 3224 3224 3224 3224 3224 3225 3225 3225 3225 3225 3225 3225 3225 3224 3225 3225 3225 3225 3225 3225 3225 3225 3224 3224 3224 3224 3224 3224 3223 3224 3224 3225 3226 3226 3226 3227 3228 3230 3230 3232 3233 3229 3228 3228 3228 3228
3204 3205 3206 3207 3208 3209 3209 3210 3211 3212 3212 3213 3214 3215 3216 3218 3218 3218 3218 3218 3218 3218 3219 3220 3220 3221 3221 3221 3222 3222 3223 3223 3223 3224 3224 3224 3224 3224 3224 3225 3225 3225 3225 3225 3226 3226 3226 3226 3226 3226 3226 3226 3226 3226 3226 3226 3226 3225 3225 3225 3225 3225 3225 3225 3225 3225 3224 3225 3226 3226 3226 3226 3226 3227 3228 3228 3229 3231 3232 3233 3231 3230 3230 3229 3229
3205 3206 3207 3208 3209 3210 3210 3211 3212 3213 3213 3214 3215 3215 3216 3218 3219 3219 3219 3219 3219 3219 3220 3221 3221 3221 3222 3222 3222 3223 3223 3223 3224 3224 3225 3225 3225 3225 3225 3225 3226 3226 3226 3226 3227 3227 3228 3228 3228 3227 3227 3227 3227 3227 3227 3227 3226 3226 3226 3226 3225 3225 3225 3225 3225 3225 3224 3226 3227 3226 3227 3227 3226 3227 3229 3229 3230 3232 3233 3233 3232 3231 3231 3230 3230
3206 3207 3208 3209 3210 3211 3211 3212 3213 3214 3214 3215 3216 3216 3218 3219 3220 3220 3220 3220 3220 3221 3221 3221 3222 3222 3222 3223 3223 3224 3224 3224 3224 3225 3225 3226 3226 3226 3226 3226 3227 3227 3227 3227 3228 3228 3228 3229 3229 3229 3228 3228 3228 3228 3228 3228 3228 3227 3227 3227 3226 3226 3226 3226 3225 3225 3224 3226 3228 3227 3227 3227 3227 3228 3229 3230 3232 3233 3234 3234 3233 3232 3232 3231 3231
3207 3208 3209 3210 3211 3211 3212 3213 3214 3215 3216 3216 3217 3217 3219 3220 3221 3221 3221 3221 3222 3222 3222 3222 3222 3223 3223 3224 3224 3224 3225 3225 3225 3226 3226 3227 3227 3227 3227 3227 3228 3228 3228 3228 3229 3229 3229 3230 3230 3230 3230 3229 3229 3229 3229 3229 3229 3229 3228 3228 3228 3227 3227 3226 3225 3225 3224 3227 3229 3228 3229 3229 3229 3230 3231 3232 3232 3234 3234 3234 3233 3233 3232 3231 3231
3208 3209 3210 3211 3212 3213 3213 3214 3215 3216 3216 3217 3218 3218 3220 3221 3222 3222 3222 3222 3222 3223 3223 3223 3223 3224 3224 3225 3225 3225 3226 3226 3226 3227 3227 3228 3229 3228 3228 3228 3228 3228 3229 3229 3230 3230 3230 3230 3230 3230 3230 3231 3231 3230 3230 3230 3230 3230 3230 3229 3229 3228 3228 3228 3227 3227 3225 3228 3231 3230 3230 3230 3231 3232 3232 3233 3234 3235 3234 3234 3233 3233 3232 3232 3232
3208 3209 3211 3212 3213 3214 3214 3215 3216 3216 3217 3218 3219 3219 3220 3221 3222 3223 3223 3223 3223 3223 3223 3224 3224 3225 3225 3226 3226 3226 3227 3227 3227 3227 3228 3229 3229 3229 3229 3229 3229 3229 3230 3230 3230 3230 3231 3231 3231 3231 3231 3231 3232 3232 3231 3231 3231 3231 3231 3230 3230 3230 3229 3229 3229 3228 3226 3228 3231 3231 3231 3232 3232 3233 3233 3234 3235 3234 3234 3233 3233 3233 3233 3233 3233
3209 3210 3211 3213 3214 3215 3215 3216 3217 3217 3218 3219 3220 3220 3221 3222 3222 3223 3223 3223 3223 3224 3224 3225 3226 3226 3226 3226 3227 3227 3228 3228 3228 3228 3228 3229 3229 3230 3230 3230 3230 3230 3230 3231 3231 3231 3232 3232 3232 3232 3232 3232 3233 3233 3232 3231 3232 3232 3232 3231 3231 3231 3230 3230 3229 3229 3228 3228 3231 3232 3232 3233 3234 3233 3234 3234 3233 3233 3234 3234 3234 3233 3233 3233 3234
3209 3211 3212 3213 3214 3215 3216 3217 3218 3218 3219 3220 3220 3221 3222 3222 3223 3223 3224 3224 3224 3225 3226 3226 3227 3227 3227 3228 3228 3228 3228 3229 3229 3229 3229 3229 3229 3230 3230 3230 3231 3231 3231 3232 3232 3232 3232 3233 3233 3234 3234 3234 3234 3233 3233 3233 3233 3233 3233 3232 3232 3232 3231 3231 3231 3231 3230 3230 3232 3232 3232 3233 3233 3233 3232 3232 3232 3233 3234 3234 3234 3234 3234 3234 3235
3210 3211 3213 3214 3215 3216 3217 3218 3218 3219 3220 3220 3221 3222 3222 3223 3223 3224 3225 3225 3225 3226 3227 3227 3227 3228 3228 3229 3229 3229 3229 3229 3230 3230 3230 3230 3230 3230 3231 3231 3232 3232 3232 3233 3233 3233 3234 3234 3235 3236 3235 3235 3235 3235 3235 3235 3234 3234 3234 3233 3233 3233 3233 3233 3232 3232 3232 3232 3232 3232 3233 3233 3233 3233 3233 3233 3234 3234 3235 3234 3235 3235 3235 3236 3236
3210 3212 3213 3214 3216 3217 3217 3218 3219 3220 3220 3221 3222 3222 3223 3224 3224 3225 3225 3226 3226 3227 3227 3228 3228 3229 3229 3229 3230 3230 3230 3231 3231 3231 3231 3231 3231 3231 3232 3232 3233 3233 3233 3233 3234 3234 3235 3235 3236 3237 3238 3237 3237 3236 3236 3236 3235 3235 3235 3234 3234 3234 3234 3234 3234 3234 3233 3233 3233 3233 3234 3234 3234 3234 3234 3234 3235 3235 3235 3235 3236 3236 3236 3237 3237
3211 3212 3214 3215 3216 3217 3218 3219 3219 3220 3221 3221 3222 3223 3224 3224 3225 3226 3226 3227 3227 3228 3228 3229 3229 3229 3230 3230 3231 3231 3232 3232 3232 3232 3232 3232 3232 3232 3233 3233 3233 3234 3234 3234 3235 3235 3235 3235 3236 3237 3237 3237 3237 3236 3236 3236 3236 3236 3236 3236 3236 3235 3235 3235 3235 3235 3234 3234 3234 3234 3234 3234 3235 3235 3235 3235 3236 3236 3236 3236 3237 3237 3237 3238 3238
3211 3212 3214 3215 3217 3218 3218 3219 3220 3221 3221 3222 3223 3224 3225 3225 3226 3226 3227 3227 3228 3229 3229 3230 3230 3231 3231 3231 3232 3232 3232 3233 3233 3233 3233 3233 3233 3233 3233 3234 3234 3234 3235 3235 3235 3235 3234 3235 3235 3236 3235 3236 3236 3237 3237 3237 3237 3237 3237 3237 3237 3237 3237 3237 3237 3236 3236 3235 3235 3235 3235 3235 3235 3235 3236 3236 3236 3237 3237 3237 3238 3238 3238 3239 3239
3211 3212 3214 3216 3217 3218 3219 3220 3221 3221 3222 3223 3224 3225 3226 3226 3227 3227 3228 3228 3229 3229 3230 3230 3231 3232 3232 3232 3233 3233 3233 3234 3234 3234 3234 3234 3234 3234 3234 3234 3234 3235 3235 3235 3235 3235 3235 3235 3235 3236 3236 3237 3238 3238 3238 3238 3238 3239 3239 3239 3238 3238 3238 3238 3238 3238 3238 3237 3236 3236 3235 3236 3236 3236 3236 3237 3237 3238 3238 3238 3238 3239 3239 3239 3239
3210 3212 3214 3216 3217 3218 3219 3220 3221 3222 3222 3223 3224 3225 3226 3227 3227 3228 3228 3229 3230 3230 3231 3231 3232 3233 3233 3234 3234 3234 3234 3235 3235 3235 3235 3235 3235 3236 3235 3235 3235 3236 3236 3236 3236 3236 3236 3237 3237 3237 3238 3239 3239 3240 3240 3240 3240 3240 3240 3240 3240 3240 3240 3240 3240 3239 3239 3238 3237 3237 3237 3237 3237 3237 3237 3237 3238 3238 3238 3239 3239 3239 3239 3240 3240
3211 3212 3214 3216 3217 3218 3219 3220 3221 3222 3223 3224 3225 3226 3227 3227 3228 3228 3229 3230 3231 3231 3232 3232 3233 3234 3235 3235 3235 3235 3235 3236 3236 3237 3237 3236 3237 3237 3237 3237 3237 3237 3237 3238 3238 3238 3238 3238 3239 3239 3239 3240 3240 3241 3241 3241 3242 3241 3241 3241 3241 3241 3241 3241 3241 3241 3240 3240 3239 3239 3239 3238 3238 3238 3238 3238 3239 3239 3239 3239 3240 3240 3240 3240 3240
3211 3213 3214 3216 3217 3218 3219 3220 3221 3222 3223 3224 3225 3226 3227 3228 3229 3229 3230 3231 3232 3232 3233 3233 3234 3235 3236 3236 3236 3236 3237 3237 3238 3238 3238 3237 3238 3238 3238 3238 3239 3239 3239 3239 3239 3239 3239 3239 3240 3240 3241 3241 3241 3242 3242 3242 3242 3242 3242 3242 3242 3242 3242 3242 3242 3242 3242 3241 3241 3240 3240 3240 3240 3239 3239 3240 3240 3240 3240 3240 3240 3240 3240 3240 3240
3211 3213 3214 3216 3217 3218 3220 3220 3221 3222 3223 3225 3226 3227 3228 3228 3229 3230 3231 3232 3233 3233 3234 3235 3235 3236 3237 3237 3238 3238 3238 3238 3239 3239 3239 3239 3239 3239 3240 3240 3240 3240 3240 3240 3240 3240 3240 3241 3241 3241 3242 3242 3242 3242 3243 3243 3242 3243 3243 3243 3243 3243 3243 3243 3243 3243 3243 3242 3242 3242 3242 3241 3241 3241 3241 3241 3241 3241 3241 3241 3241 3241 3241 3241 3241
3211 3213 3214 3216 3217 3218 3220 3221 3222 3222 3224 3225 3226 3227 3228 3229 3230 3231 3232 3233 3234 3234 3235 3236 3236 3237 3238 3238 3239 3239 3239 3240 3240 3240 3240 3240 3240 3241 3241 3241 3241 3241 3241 3242 3242 3242 3242 3242 3242 3242 3243 3243 3243 3243 3243 3243 3243 3244 3244 3244 3244 3244 3244 3244 3244 3244 3244 3243 3243 3243 3243 3243 3242 3242 3242 3242 3242 3242 3242 3242 3242 3242 3242 3242 3241
3211 3213 3215 3216 3217 3218 3220 3221 3222 3223 3224 3225 3226 3227 3229 3229 3230 3231 3232 3234 3234 3235 3236 3237 3237 3238 3239 3239 3239 3240 3240 3240 3241 3241 3241 3241 3242 3242 3242 3242 3243 3243 3243 3243 3243 3243 3243 3243 3243 3243 3244 3244 3244 3244 3244 3244 3245 3245 3245 3245 3245 3245 3245 3245 3245 3245 3245 3245 3244 3244 3244 3244 3243 3243 3243 3243 3243 3243 3243 3243 3243 3243 3243 3243 3243
3211 3213 3215 3216 3217 3219 3220 3221 3222 3223 3224 3225 3226 3228 3229 3230 3231 3232 3233 3234 3235 3236 3237 3237 3238 3239 3239 3240 3241 3241 3241 3242 3242 3242 3242 3243 3243 3243 3244 3244 3244 3244 3244 3244 3244 3244 3244 3244 3244 3244 3245 3245 3245 3245 3245 3245 3245 3246 3246 3246 3246 3246 3246 3246 3246 3246 3246 3246 3245 3245 3245 3245 3244 3244 3244 3244 3244 3244 3244 3244 3244 3244 3244 3244 3244
3211 3213 3215 3216 3217 3219 3220 3221 3222 3223 3224 3225 3227 3228 3229 3230 3231 3232 3233 3234 3235 3237 3237 3238 3239 3240 3240 3241 3242 3242 3242 3243 3243 3243 3243 3244 3244 3245 3245 3245 3245 3245 3245 3245 3245 3245 3245 3245 3245 3245 3245 3246 3246 3246 3246 3246 3246 3247 3247 3247 3247 3247 3247 3247 3247 3247 3247 3247 3247 3246 3246 3246 3246 3245 3245 3245 3245 3245 3245 3245 3245 3245 3245 3245 3244
3211 3213 3214 3216 3217 3219 3220 3221 3222 3223 3224 3226 3227 3228 3229 3230 3231 3233 3233 3234 3236 3237 3238 3239 3240 3241 3241 3242 3242 3243 3243 3243 3244 3244 3244 3245 3245 3245 3245 3245 3245 3245 3245 3245 3245 3245 3245 3245 3246 3246 3246 3246 3246 3247 3247 3247 3247 3247 3247 3247 3247 3248 3248 3247 3247 3247 3247 3247 3247 3247 3247 3247 3247 3247 3247 3246 3246 3246 3246 3246 3246 3246 3245 3245 3245
3211 3213 3214 3216 3217 3219 3220 3221 3222 3223 3224 3226 3227 3228 3229 3230 3232 3233 3234 3235 3236 3237 3238 3239 3240 3241 3242 3242 3243 3243 3243 3244 3244 3245 3245 3245 3245 3245 3246 3246 3246 3246 3246 3246 3246 3246 3246 3246 3246 3246 3246 3247 3247 3247 3247 3248 3248 3248 3248 3248 3248 3248 3249 3248 3248 3248 3248 3248 3248 3248 3248 3248 3248 3248 3248 3247 3247 3247 3247 3247 3246 3246 3246 3246 3246
3211 3212 3214 3215 3217 3218 3220 3221 3222 3223 3224 3226 3227 3228 3230 3231 3232 3233 3234 3235 3236 3237 3239 3240 3241 3241 3242 3242 3243 3243 3244 3244 3245 3245 3245 3245 3246 3246 3246 3246 3246 3246 3246 3246 3246 3246 3246 3247 3247 3247 3247 3247 3248 3248 3248 3248 3249 3249 3249 3249 3249 3249 3249 3249 3249 3249 3248 3249 3249 3249 3249 3249 3249 3249 3249 3249 3248 3248 3248 3247 3247 3246 3246 3246 3246
3210 3212 3214 3215 3217 3218 3219 3221 3222 3223 3225 3226 3227 3229 3230 3231 3232 3233 3234 3236 3237 3238 3239 3240 3241 3242 3242 3243 3243 3244 3244 3245 3245 3245 3246 3246 3246 3246 3246 3247 3247 3247 3247 3247 3247 3247 3247 3247 3248 3248 3248 3247 3248 3248 3248 3249 3249 3249 3249 3249 3249 3249 3250 3250 3249 3249 3249 3249 3249 3249 3249 3249 3249 3249 3249 3249 3249 3249 3248 3248 3248 3247 3246 3246 3247
3210 3211 3213 3215 3216 3218 3219 3221 3222 3223 3225 3226 3227 3228 3230 3231 3232 3233 3235 3236 3237 3238 3239 3240 3241 3242 3243 3243 3243 3244 3244 3245 3245 3246 3246 3246 3246 3247 3247 3247 3247 3247 3247 3247 3247 3247 3247 3248 3248 3248 3248 3248 3248 3249 3249 3249 3250 3250 3250 3250 3250 3250 3250 3251 3250 3250 3250 3250 3250 3250 3250 3250 3250 3250 3249 3249 3249 3249 3249 3249 3248 3248 3247 3247 3247
3209 3211 3212 3214 3216 3217 3219 3220 3222 3223 3224 3226 3227 3228 3230 3231 3232 3234 3235 3236 3237 3239 3240 3241 3242 3243 3243 3244 3244 3244 3245 3245 3246 3246 3246 3246 3247 3247 3247 3247 3248 3248 3248 3248 3248 3248 3248 3248 3248 3248 3249 3248 3248 3249 3249 3250 3250 3251 3251 3251 3251 3251 3251 3251 3251 3251 3251 3251 3251 3251 3250 3250 3251 3250 3250 3250 3250 3249 3249 3249 3249 3248 3248 3248 3248
3208 3210 3212 3213 3215 3217 3218 3220 3222 3223 3224 3225 3227 3228 3229 3231 3232 3233 3235 3236 3238 3239 3240 3241 3242 3243 3244 3244 3244 3244 3245 3246 3246 3247 3247 3247 3247 3247 3248 3248 3248 3249 3249 3249 3249 3249 3249 3249 3248 3248 3249 3249 3248 3249 3250 3250 3251 3251 3251 3251 3251 3251 3251 3252 3252 3251 3251 3251 3251 3251 3251 3251 3251 3251 3251 3251 3250 3250 3250 3250 3249 3249 3249 3249 3249
3208 3209 3211 3213 3214 3216 3218 3220 3221 3223 3224 3225 3226 3228 3229 3231 3232 3233 3235 3236 3238 3239 3240 3241 3242 3243 3244 3244 3245 3245 3245 3246 3247 3247 3248 3248 3248 3248 3248 3249 3249 3249 3249 3249 3249 3249 3249 3249 3249 3249 3249 3249 3249 3249 3250 3250 3251 3251 3251 3251 3252 3251 3251 3252 3252 3252 3252 3252 3252 3252 3251 3251 3251 3251 3251 3251 3251 3251 3250 3250 3250 3250 3250 3250 3249
3206 3208 3210 3212 3214 3216 3217 3219 3220 3222 3223 3225 3226 3227 3229 3230 3232 3233 3234 3236 3237 3239 3240 3241 3242 3243 3244 3244 3245 3245 3246 3246 3247 3248 3248 3248 3249 3249 3249 3249 3250 3250 3250 3250 3250 3250 3250 3249 3249 3249 3250 3249 3249 3249 3250 3250 3251 3251 3251 3251 3252 3252 3252 3252 3252 3252 3252 3252 3252 3252 3252 3252 3252 3251 3251 3251 3251 3251 3250 3250 3250 3250 3250 3250 3250
3205 3207 3209 3211 3213 3214 3216 3217 3219 3221 3222 3224 3225 3227 3228 3230 3231 3233 3234 3236 3237 3239 3240 3241 3242 3243 3244 3244 3245 3246 3246 3247 3248 3248 3249 3249 3249 3249 3250 3250 3250 3251 3251 3251 3251 3251 3251 3250 3249 3250 3250 3250 3250 3250 3250 3251 3251 3252 3252 3252 3252 3252 3252 3252 3253 3252 3253 3253 3253 3252 3252 3252 3252 3251 3251 3251 3251 3251 3251 3251 3251 3251 3250 3250 3250
3204 3205 3207 3209 3211 3213 3214 3216 3218 3220 3221 3223 3225 3226 3227 3229 3231 3232 3234 3235 3237 3238 3240 3241 3242 3243 3244 3245 3245 3246 3246 3247 3248 3248 3249 3249 3250 3250 3250 3251 3251 3251 3251 3251 3251 3251 3251 3251 3251 3251 3251 3251 3251 3251 3251 3251 3251 3252 3252 3252 3252 3252 3252 3253 3253 3253 3253 3253 3253 3253 3253 3252 3252 3251 3251 3251 3251 3251 3251 3251 3251 3251 3251 3251 3251
3202 3203 3205 3207 3209 3211 3213 3215 3217 3218 3220 3222 3224 3225 3227 3228 3230 3232 3234 3235 3236 3238 3239 3240 3242 3243 3244 3245 3245 3246 3246 3247 3248 3248 3249 3249 3250 3251 3251 3251 3252 3252 3252 3252 3252 3252 3252 3252 3252 3252 3252 3252 3251 3251 3251 3251 3252 3252 3252 3253 3252 3252 3253 3253 3253 3253 3253 3253 3253 3253 3253 3253 3252 3252 3252 3251 3251 3251 3251 3251 3251 3252 3252 3251 3251
3200 3202 3204 3206 3208 3210 3212 3214 3215 3217 3219 3221 3223 3225 3226 3228 3230 3232 3233 3235 3236 3237 3238 3240 3241 3242 3244 3245 3245 3246 3246 3247 3247 3248 3249 3250 3250 3251 3251 3252 3252 3252 3252 3252 3252 3252 3252 3252 3252 3252 3252 3252 3252 3252 3252 3252 3252 3252 3252 3253 3253 3253 3253 3253 3253 3253 3253 3254 3254 3254 3253 3253 3253 3253 3253 3252 3252 3252 3252 3252 3252 3252 3252 3252 3252
3199 3201 3203 3205 3206 3208 3210 3212 3214 3216 3218 3220 3222 3224 3226 3228 3229 3231 3232 3234 3235 3236 3238 3239 3240 3242 3243 3245 3245 3246 3247 3247 3247 3248 3249 3250 3251 3251 3252 3252 3252 3252 3253 3253 3253 3253 3253 3253 3252 3252 3252 3253 3253 3252 3252 3252 3252 3252 3253 3253 3253 3253 3253 3253 3253 3253 3253 3254 3254 3254 3254 3254 3254 3254 3254 3253 3253 3253 3253 3253 3253 3253 3253 3252 3252
3197 3199 3201 3203 3204 3206 3208 3210 3212 3214 3216 3218 3221 3223 3225 3227 3228 3230 3231 3232 3234 3235 3237 3238 3240 3241 3243 3244 3245 3246 3247 3247 3248 3248 3249 3250 3251 3252 3252 3252 3253 3253 3253 3253 3253 3253 3253 3253 3253 3253 3252 3253 3253 3253 3252 3252 3252 3252 3253 3253 3253 3253 3254 3254 3253 3253 3253 3254 3254 3254 3254 3254 3255 3255 3255 3254 3254 3254 3254 3254 3253 3253 3253 3253 3253
3195 3197 3199 3201 3203 3205 3207 3209 3211 3213 3215 3217 3219 3221 3223 3225 3226 3228 3229 3230 3232 3234 3236 3238 3240 3241 3242 3244 3245 3246 3247 3247 3248 3249 3249 3250 3251 3252 3252 3253 3253 3253 3253 3253 3253 3253 3253 3253 3253 3253 3253 3253 3253 3253 3253 3253 3253 3252 3253 3253 3253 3253 3254 3254 3254 3254 3254 3254 3254 3255 3255 3255 3255 3255 3255 3255 3255 3255 3254 3254 3254 3254 3254 3254 3254
3193 3196 3198 3200 3202 3204 3206 3208 3210 3212 3214 3216 3218 3220 3221 3223 3225 3227 3228 3230 3232 3234 3236 3238 3240 3241 3242 3243 3244 3245 3246 3247 3248 3248 3249 3250 3251 3252 3252 3253 3253 3253 3254 3254 3254 3254 3254 3254 3254 3254 3253 3253 3253 3254 3253 3253 3253 3253 3253 3253 3253 3253 3254 3254 3254 3254 3254 3254 3255 3255 3255 3255 3255 3255 3255 3255 3255 3255 3255 3255 3255 3255 3255 3255 3254
3192 3194 3197 3198 3200 3202 3204 3206 3208 3210 3212 3214 3216 3217 3219 3221 3224 3226 3228 3230 3232 3234 3236 3238 3239 3240 3241 3242 3243 3245 3246 3247 3248 3248 3249 3250 3251 3251 3252 3252 3253 3253 3254 3254 3254 3254 3254 3254 3254 3254 3254 3254 3254 3254 3254 3253 3253 3253 3253 3253 3253 3253 3254 3254 3254 3254 3255 3255 3255 3256 3256 3256 3256 3256 3256 3255 3255 3256 3256 3256 3255 3255 3255 3255 3255
3191 3193 3195 3197 3199 3200 3202 3204 3207 3209 3211 3212 3214 3216 3218 3220 3222 3225 3226 3229 3231 3233 3235 3236 3237 3239 3240 3241 3243 3244 3245 3246 3247 3248 3249 3249 3250 3251 3251 3252 3252 3253 3254 3254 3254 3254 3254 3254 3254 3254 3254 3254 3254 3254 3254 3254 3254 3253 3253 3254 3254 3254 3254 3254 3254 3255 3255 3255 3255 3256 3256 3256 3256 3256 3256 3256 3256 3256 3256 3256 3256 3256 3256 3256 3255
3189 3191 3193 3195 3197 3199 3201 3203 3205 3207 3209 3211 3212 3214 3216 3219 3221 3223 3225 3227 3230 3231 3233 3234 3236 3237 3239 3240 3242 3243 3245 3246 3247 3248 3248 3249 3250 3250 3251 3251 3252 3253 3253 3254 3254 3254 3254 3254 3254 3255 3255 3255 3254 3254 3254 3254 3254 3254 3254 3254 3254 3254 3254 3255 3255 3255 3255 3256 3256 3256 3256 3257 3257 3257 3257 3256 3256 3256 3256 3256 3257 3257 3257 3256 3256
3188 3189 3191 3193 3195 3197 3199 3201 3203 3205 3207 3209 3211 3213 3215 3217 3219 3221 3223 3226 3228 3229 3231 3232 3234 3236 3237 3239 3241 3242 3244 3245 3246 3247 3248 3249 3250 3250 3251 3251 3252 3252 3253 3254 3254 3254 3254 3254 3254 3255 3255 3255 3255 3255 3254 3254 3254 3254 3254 3254 3254 3254 3255 3255 3255 3256 3256 3256 3256 3256 3257 3257 3257 3257 3257 3257 3257 3257 3257 3257 3257 3257 3257 3257 3257
3185 3187 3189 3191 3193 3195 3197 3199 3201 3203 3205 3207 3209 3211 3213 3215 3217 3220 3222 3224 3226 3228 3229 3231 3233 3234 3236 3238 3239 3241 3243 3244 3245 3246 3247 3248 3249 3250 3251 3251 3251 3252 3252 3253 3253 3254 3254 3254 3254 3255 3255 3255 3255 3255 3255 3254 3254 3255 3255 3255 3255 3255 3255 3255 3255 3256 3256 3256 3256 3257 3257 3257 3258 3258 3258 3258 3258 3258 3258 3258 3257 3257 3257 3257 3257